Weather History for Toledo, OH

Change the Weather History Date:

Tuesday, March 26, 2013

  Actual Average Record
Temperature  
Mean Temperature 38 °F 41 °F  
Max Temperature 44 °F 51 °F 79 °F (2007)
Min Temperature 32 °F 32 °F 9 °F (2014)
Degree Days  
Heating Degree Days 27 24  
Month to date heating degree days 856 738  
Since 1 July heating degree days 5312 5314  
Cooling Degree Days 0 0  
Month to date cooling degree days 0 0  
Year to date cooling degree days 0 0  
Moisture  
Dew Point 27 °F    
Average Humidity 67    
Maximum Humidity 82    
Minimum Humidity 51    
Precipitation  
Precipitation T in 0.08 in 0.82 in (1959)
Month to date precipitation 0.73 2.02  
Year to date precipitation 7.17 6.14  
Snow  
Snow 0.00 in 0.10 in - ()
Month to date snowfall 1.4 5.1  
Since 1 July snowfall 22.1 35.6  
Snow Depth 0.00 in    
Sea Level Pressure  
Sea Level Pressure 30.05 in    
Wind  
Wind Speed 10 mph (WNW)    
Max Wind Speed 22 mph    
Max Gust Speed 25 mph    
Visibility 10 miles    
Events      
T = Trace of Precipitation, MM = Missing Value Source: NWS Daily Summary

Daily Weather History Graph

Daily Weather History Graph

Search for Another Location

Airport:

Trip Planner

Search our weather history database for the weather conditions in past years. The results will help you decide how hot, cold, wet, or windy it might be!

Date:

Astronomy

Mar. 26, 2013 Rise Set
Actual Time 7:27 AM EDT 7:54 PM EDT
Civil Twilight 7:00 AM EDT 8:22 PM EDT
Nautical Twilight 6:27 AM EDT 8:54 PM EDT
Astronomical Twilight 5:53 AM EDT 9:28 PM EDT
Moon 7:30 PM EDT (3/26) 6:44 AM EDT (3/26)
Length of Visible Light 13h 21m
Length of Day
12h 26m
Waxing Gibbous, 99% of the Moon is Illuminated
Mar 26
Waxing Gibbous
Mar 27
Full
Apr 3
Last Quarter
Apr 10
New
Apr 18
First Quarter

Hourly Weather History & Observations

Time (EDT) Temp. Windchill Dew Point Humidity Pressure Visibility Wind Dir Wind Speed Gust Speed Precip Events Conditions
12:52 AM 34.0 °F 28.0 °F 28.0 °F 79% 29.92 in 10.0 mi NW 6.9 mph - N/A   Overcast
1:52 AM 34.0 °F 27.2 °F 27.0 °F 75% 29.94 in 10.0 mi NNW 8.1 mph - N/A   Overcast
2:52 AM 33.1 °F 26.1 °F 27.0 °F 78% 29.95 in 10.0 mi NNW 8.1 mph - N/A   Overcast
3:52 AM 33.1 °F 26.1 °F 27.0 °F 78% 29.96 in 10.0 mi NW 8.1 mph - N/A   Overcast
4:52 AM 33.1 °F 26.9 °F 27.0 °F 78% 29.96 in 10.0 mi NW 6.9 mph - N/A   Overcast
5:52 AM 32.0 °F 24.8 °F 27.0 °F 82% 29.97 in 10.0 mi NW 8.1 mph - N/A   Overcast
6:52 AM 32.0 °F 24.8 °F 26.1 °F 79% 29.99 in 10.0 mi NW 8.1 mph - N/A   Overcast
7:52 AM 32.0 °F 24.8 °F 26.1 °F 79% 30.02 in 10.0 mi NW 8.1 mph - N/A   Overcast
8:52 AM 33.1 °F 25.5 °F 26.1 °F 75% 30.04 in 10.0 mi NW 9.2 mph - N/A   Overcast
9:52 AM 34.0 °F 26.0 °F 27.0 °F 75% 30.06 in 10.0 mi NW 10.4 mph - N/A   Overcast
10:52 AM 37.0 °F 29.8 °F 28.0 °F 70% 30.06 in 10.0 mi WNW 10.4 mph - N/A   Overcast
11:52 AM 39.0 °F 31.4 °F 27.0 °F 62% 30.07 in 10.0 mi NW 12.7 mph 19.6 mph N/A   Mostly Cloudy
12:52 PM 41.0 °F 35.2 °F 26.1 °F 55% 30.07 in 10.0 mi WNW 9.2 mph - N/A   Scattered Clouds
1:52 PM 39.0 °F 30.6 °F 28.0 °F 65% 30.07 in 10.0 mi WNW 15.0 mph - 0.00 in   Overcast
2:52 PM 39.9 °F 33.4 °F 27.0 °F 60% 30.07 in 10.0 mi NW 10.4 mph - N/A   Overcast
3:52 PM 41.0 °F 37.1 °F 25.0 °F 53% 30.06 in 10.0 mi Variable 5.8 mph - N/A   Overcast
4:52 PM 37.9 °F 30.9 °F 28.9 °F 70% 30.08 in 9.0 mi West 10.4 mph - 0.00 in   Overcast
5:52 PM 37.9 °F 31.5 °F 28.0 °F 68% 30.08 in 10.0 mi West 9.2 mph - N/A   Overcast
6:52 PM 37.9 °F 30.5 °F 26.1 °F 62% 30.10 in 10.0 mi West 11.5 mph - N/A   Overcast
7:52 PM 37.0 °F 28.9 °F 26.1 °F 65% 30.12 in 10.0 mi West 12.7 mph - N/A   Overcast
8:52 PM 35.1 °F 27.4 °F 27.0 °F 72% 30.14 in 10.0 mi WNW 10.4 mph - N/A   Overcast
9:52 PM 35.1 °F 26.9 °F 28.0 °F 76% 30.15 in 10.0 mi West 11.5 mph - N/A   Overcast
10:52 PM 35.1 °F 27.4 °F 27.0 °F 72% 30.15 in 10.0 mi West 10.4 mph - N/A   Overcast
11:52 PM 34.0 °F 24.6 °F 28.0 °F 79% 30.15 in 10.0 mi West 13.8 mph - N/A   Overcast